Regional Weather Roundup
Issued by NWS Albany, NY

Home | Current Version | Previous Version | Text Only | Print | Product List | Glossary On
Versions: 1 2 3 4 5 6 7 8 9 10 11 12 13 14 15 16 17 18 19 20 21 22 23 24 25 26 27
000
ASUS41 KALY 180910
RWRALY

NEW YORK STATE HOURLY WEATHER ROUNDUP
NATIONAL WEATHER SERVICE ALBANY NY
500 AM EDT FRI APR 18 2014

NOTE: "FAIR" INDICATES FEW OR NO CLOUDS BELOW 12,000 FEET WITH NO
SIGNIFICANT WEATHER AND/OR NO OBSTRUCTIONS TO VISIBILITY.

NYZ032-033-038>043-046>054-057>066-NYZ062>081-181000-
EAST


CITY           SKY/WX    TMP DP  RH WIND       PRES   REMARKS
ALBANY         CLEAR     31  20  63 CALM      30.54F
GLENS FALLS    CLEAR    N/A N/A N/A CALM      30.54F
POUGHKEEPSIE   CLEAR     32  25  75 E7        30.51F WCI  26
NEWBURGH       CLEAR     32  28  86 E12       30.57F WCI  23
MONTGOMERY     PTCLDY    28  25  88 N3        30.49F
WHITE PLAINS   CLEAR     31  23  72 E6        30.48F WCI  25
ISLIP          CLOUDY    36  27  69 NE13      30.50F WCI  27
NEW YORK CITY  MOCLDY    36  25  64 E13       30.50F WCI  27
CENTRAL PARK   CLOUDY    37  27  67 E9G17     30.52F WCI  30
$$

NYZ005>009-017-018-044>046-055-056-181000-
CENTRAL


CITY           SKY/WX    TMP DP  RH WIND       PRES   REMARKS
FULTON         PTCLDY    39  25  57 SE6       30.37F WCI  35
SYRACUSE       PTCLDY    37  24  59 E10       30.39F WCI  30
ROME           CLEAR     34  23  64 E8        30.46F WCI  27
ELMIRA         CLEAR     36  26  67 CALM      30.41S
BINGHAMTON     CLEAR     31  24  75 SE8       30.39F WCI  23
MONTICELLO     CLEAR     27  25  93 CALM      30.46F
$$

NYZ026>034-041>043-181000-
NORTH


CITY           SKY/WX    TMP DP  RH WIND       PRES   REMARKS
WATERTOWN      PTCLDY    42  23  46 S7        30.37F
FORT DRUM      NOT AVBL
MASSENA        CLEAR     38  21  50 SE5       30.42F WCI  34
SARANAC LAKE   CLEAR     21  18  88 CALM      30.39F
PLATTSBURGH    CLEAR     34  20  56 S13       30.49F WCI  25
$$

NYZ001>004-010>016-019>021-181000-
WEST


CITY           SKY/WX    TMP DP  RH WIND       PRES   REMARKS
NIAGARA FALLS  MOCLDY    45  28  51 S9        30.27S
BUFFALO        MOCLDY    45  28  51 SE9       30.28S
DUNKIRK        MOCLDY    48  27  44 S17G30    30.27S
JAMESTOWN      MOCLDY    39  27  60 S9        30.31F WCI  33
WELLSVILLE     CLEAR     36  26  67 S10       30.35R WCI  28
ROCHESTER      CLEAR     43  29  57 S7        30.32F
PENN YAN       CLEAR     38  28  67 S9        30.36F WCI  31
$$

             KEY
       WCI = WIND CHILL INDEX
       VSB = VISIBILITY
       HX  = HEAT INDEX
$$



USA.gov is the U.S. government's official web portal to all federal, state and local government web resources and services.